EW6294 Weather Reports


time (UTC)temp
F
wind
direction
speed
knots
gust
knots
rain 1hr
in
rain 24hr
in
rain mn
in
humidity
%
barometer
mb
20260906223036 80 338 4.3 10.4 0.00 0.00 0.00 42 1008.5
20260906220017 79 338 5.2 14.8 0.00 0.00 0.00 41 1008.7
20260906213016 78 338 6.1 13.9 0.00 0.00 0.00 45 1009.5
20260906210016 79 338 6.1 13.9 0.00 0.00 0.00 44 1010.4
20260906203016 78 338 4.3 11.3 0.00 0.00 0.00 45 1011.0
20260906200016 79 338 5.2 13.0 0.00 0.00 0.00 46 1011.8
20260906193016 79 45 3.5 10.4 0.00 0.00 0.00 41 1012.2
20260906190016 80 23 2.6 8.7 0.00 0.00 0.00 38 1012.9
20260906183016 78 338 2.6 10.4 0.00 0.00 0.00 41 1013.3
20260906180036 77 45 2.6 7.8 0.00 0.00 0.00 43 1014.1
20260906170016 75 45 1.7 6.1 0.00 0.00 0.00 43 1014.7
20260906163017 72 203 1.7 3.5 0.00 0.00 0.00 45 1014.7
20260906160017 69 180 0.9 4.3 0.00 0.00 0.00 48 1014.8
20260906153017 67 180 0.9 4.3 0.00 0.00 0.00 52 1014.5
20260906150017 67 0.0 1.7 0.00 0.00 0.00 50 1014.7
20260906143037 62 0.0 4.3 0.00 0.00 0.00 57 1014.7
20260906140017 58 180 0.9 4.3 0.00 0.00 0.00 63 1014.5
20260906133017 55 180 0.9 4.3 0.00 0.00 0.00 67 1014.1
20260906130016 54 180 0.9 6.1 0.00 0.00 0.00 67 1013.9
20260906123037 55 180 0.9 4.3 0.00 0.00 0.00 65 1014.2
20260906120037 55 180 0.9 4.3 0.00 0.00 0.00 63 1014.3
20260906113017 56 180 0.9 4.3 0.00 0.00 0.00 61 1014.8
20260906110016 58 180 0.9 7.8 0.00 0.00 0.00 61 1014.8
20260906103016 57 180 0.9 6.1 0.00 0.00 0.00 63 1014.2
20260906100016 56 0.0 3.5 0.00 0.00 0.00 65 1013.7
20260906093016 56 0.0 2.6 0.00 0.00 0.00 69 1013.4
20260906090016 58 0.0 1.7 0.00 0.00 0.00 62 1013.7
20260906083016 62 293 0.9 6.1 0.00 0.00 0.00 55 1014.1
20260906080016 64 293 0.9 4.3 0.00 0.00 0.00 56 1014.7
20260906073036 65 248 0.9 5.2 0.00 0.00 0.00 53 1014.6
20260906070016 66 248 0.9 4.3 0.00 0.00 0.00 52 1014.6
20260906063015 66 293 1.7 7.8 0.00 0.00 0.00 50 1014.5
20260906060016 67 293 1.7 9.6 0.00 0.00 0.00 48 1014.6
20260906053036 67 293 3.5 9.6 0.00 0.00 0.00 47 1014.2
20260906050016 67 315 2.6 8.7 0.00 0.00 0.00 46 1014.2
20260906043017 68 293 3.5 9.6 0.00 0.00 0.00 45 1014.2
20260906040017 68 270 2.6 9.6 0.00 0.00 0.00 44 1013.7
20260906033017 69 270 3.5 8.7 0.00 0.00 0.00 42 1013.6
20260906030017 69 270 4.3 14.8 0.00 0.00 0.00 42 1013.4
20260906023017 70 315 2.6 9.6 0.00 0.00 0.00 41 1013.0
20260906020017 72 315 1.7 8.7 0.00 0.00 0.00 38 1012.3
20260906013017 74 338 1.7 8.7 0.00 0.00 0.00 36 1012.2
20260906010037 76 338 4.3 9.6 0.00 0.00 0.00 34 1012.0
20260906003016 77 338 3.5 10.4 0.00 0.00 0.00 34 1011.9
20260906000016 78 338 4.3 11.3 0.00 0.00 0.00 34 1012.2
20260905233017 78 338 4.3 9.6 0.00 0.00 0.00 33 1012.0
20260905230016 78 338 4.3 11.3 0.00 0.00 0.00 33 1012.3